Location: *
(35.1893°S, 89.6927°E)
Time: 14:29:19
(UTC+00:00)

Daily predictions for brighter satellites

Satellite Brightness Start Highest point End
(mag) Time Altitude Azimuth Time Altitude Azimuth Time Altitude Azimuth
Cosmos 1464 Rocket 4.4 12:11:00 10° S 12:16:47 39° ESE 12:22:34 10° NNE
IGS 5A 4.2 12:14:07 10° SSE 12:17:48 31° E 12:21:25 10° NNE
Milstar 3 Cent rocket 3.2 12:12:55 10° WNW 12:17:54 48° N 12:26:21 10° ENE
CORIOLIS 4.2 12:13:08 10° SSE 12:18:35 75° ENE 12:23:58 10° N
Meteor 1-14 Rocket 4.3 12:14:04 10° S 12:19:56 88° E 12:25:35 10° N
Meteor 1-11 Rocket 4.1 12:15:27 10° S 12:21:11 45° ESE 12:26:43 10° NNE
USA 215 3.7 12:15:03 10° NNE 12:21:34 66° NW 12:28:07 10° SW
Cosmos 773 Rocket 4.0 12:18:26 10° S 12:23:37 64° ESE 12:28:47 10° NNE
Helios 1B rocket 4.2 12:23:17 10° ESE 12:24:32 11° E 12:25:46 10° ENE
Cosmos 1354 Rocket 4.1 12:22:06 10° NNW 12:27:26 86° WSW 12:32:48 10° SSE
ATLAS 3B R/B 4.3 12:29:10 10° ENE 12:30:39 11° ENE 12:31:41 10° E
Cosmos 1151 Rocket 4.1 12:28:50 10° NE 12:32:15 24° E 12:35:43 10° SE
Delta 2 Rocket 3.7 12:30:16 10° W 12:35:10 85° S 12:39:23 14° E
SL-8 R/B 3.9 12:31:57 10° SW 12:36:46 60° SSE 12:41:01 13° ENE
Cosmos 2034 Rocket 4.4 12:34:17 10° S 12:40:19 41° ESE 12:46:13 10° NNE
Okean 3 Rocket 3.6 12:36:51 10° S 12:41:29 86° E 12:46:00 10° N
NOSS 3-1 (C) 4.4 12:35:37 10° NNW 12:44:55 61° ENE 12:53:23 10° SE
Meteor 1-27 Rocket 3.8 12:39:14 10° N 12:45:05 79° E 12:51:06 10° S
Aureole 1 Rocket 3.8 12:43:48 10° NNE 12:46:23 20° E 12:49:22 10° SE
Cosmos 1626 1.6 12:46:40 10° N 12:49:36 53° E 12:52:35 10° SSE
Cosmos 1805 3.7 12:48:02 10° SSE 12:51:27 34° E 12:54:29 12° NE
Cosmos 1844 Rocket 2.9 12:46:18 10° N 12:51:40 47° ENE 12:57:03 10° SE
Cosmos 1500 Rocket 3.8 12:48:40 10° S 12:53:02 47° E 12:57:19 10° NNE
SL-16 R/B 3.1 12:49:10 10° SSW 12:54:44 54° WNW 13:00:15 10° N
YAOGAN 1 3.3 12:53:49 10° SE 12:57:41 30° E 13:01:29 10° NNE
Meteor 2-10 4.2 12:52:49 10° SSW 12:58:01 76° W 13:03:20 10° N
Cosmos 1743 Rocket 3.9 12:56:30 10° S 13:00:39 40° E 13:03:57 15° NE
Cosmos 1975 3.5 13:02:31 10° SSE 13:05:54 29° ESE 13:05:54 29° ESE
CZ-2C R/B 2.5 13:02:17 10° SSE 13:06:00 79° E 13:09:38 10° N
Cosmos 1408 Rocket 3.5 13:03:00 10° S 13:07:22 86° W 13:11:42 10° N
CZ-4B R/B 4.0 13:03:06 10° SSE 13:07:25 88° WSW 13:11:41 10° NNW
Cosmos 1603 4.4 13:02:43 10° S 13:07:59 34° ESE 13:10:07 26° E
Landsat 7 3.9 13:06:41 10° SSE 13:11:21 53° E 13:15:58 10° N
Meteor 2-9 Rocket 4.3 13:07:22 10° SSW 13:12:50 72° W 13:18:08 10° N
Cosmos 1943 3.1 13:07:47 10° SSW 13:13:25 64° ESE 13:17:31 19° NE
Meteor 1-18 Rocket 4.3 13:10:55 10° NNE 13:16:22 50° E 13:21:48 10° SSE
Atlas Centaur 2 3.8 13:14:04 10° WNW 13:17:43 19° NNW 13:20:37 11° NNE
Cosmos 1898 Rocket 3.5 13:13:35 10° N 13:18:37 53° ENE 13:23:42 10° SSE
SL-4 R/B 3.2 13:16:56 10° WNW 13:20:36 36° SW 13:23:10 16° SSE
Cosmos 1066 Rocket 4.4 13:19:46 10° NNE 13:25:01 43° E 13:30:13 10° SSE
Lacrosse 5 2.7 13:22:44 10° SSW 13:27:23 33° SE 13:28:01 32° SE
Tsikada Rocket 4.1 13:22:29 10° N 13:28:56 87° W 13:35:26 10° S
NOAA 15 4.5 13:25:04 10° SSE 13:30:24 66° ENE 13:35:38 10° N
NOAA 6 4.1 13:29:26 10° S 13:34:37 79° WSW 13:39:44 10° NNW
Cosmos 1805 Rocket 3.9 13:30:23 10° SSW 13:34:46 64° W 13:39:03 10° N
Sich 1 3.8 13:36:02 10° SSW 13:40:10 49° W 13:44:15 10° NNW
Iridium 4 Rocket 4.3 13:42:26 10° NNW 13:47:06 49° W 13:52:16 10° S
Cosmos 1844 4.2 13:45:31 10° NNW 13:51:07 60° WSW 13:56:51 10° SSE
Cosmos 372 Rocket 4.1 13:48:32 10° NNW 13:53:46 77° WSW 13:59:03 10° SSE
Milstar 3 4.0 13:49:24 10° NNW 13:54:19 24° NNE 13:54:19 24° NNE
Helios 1B rocket 3.5 13:55:14 10° S 13:58:58 41° WSW 14:02:39 10° NW
NOSS 3-1 (A) 4.3 13:54:58 10° NNW 14:04:32 89° WSW 14:13:07 10° SSE
CZ-4C R/B 4.2 14:01:39 10° S 14:03:03 13° SSE 14:03:03 13° SSE
MOS 1-B Rocket 4.5 13:58:41 10° SSE 14:06:01 82° ENE 14:14:31 10° NNW
Cosmos 1634 Rocket 4.0 14:00:11 10° S 14:06:26 77° W 14:09:11 36° N
Cosmos 1937 Rocket 3.7 14:03:06 10° NNW 14:08:23 70° WSW 14:13:40 10° SSE
H-2A R/B (2) 4.4 14:00:05 10° NW 14:19:18 30° N 14:19:45 30° N
ATLAS 3B R/B 2.8 14:13:26 10° NNW 14:19:08 60° N 14:19:08 60° N
CZ-3 Stage 3 4.5 13:16:25 10° W 14:20:35 74° NNW 14:26:06 49° NE
Timation 2 Rocket 4.3 14:29:05 10° NNW 14:35:56 73° WSW 14:42:51 10° SSE
Milstar 3 Cent rocket 4.3 14:49:19 10° W 14:56:00 41° NNW 14:56:00 41° NNW
Lacrosse 5 4.3 15:05:38 10° WSW 15:07:15 19° WSW 15:07:15 19° WSW
USA 59 Rocket 4.1 15:49:32 11° SE 15:49:32 11° SE 15:49:52 10° SE
ACS3 Solar Sail 4.2 15:34:59 10° S 15:35:45 14° S 15:35:45 14° S
USA 59 Rocket 3.7 17:35:50 25° S 17:35:50 25° S 17:40:10 10° SSE
USA 59 Rocket 4.0 19:22:07 15° SSW 19:23:46 16° SSW 19:29:38 10° SSE
Cosmos 1980 Rocket 4.5 20:28:39 20° SE 20:28:39 20° SE 20:30:31 10° SE
USA 267 4.0 20:48:36 10° SE 20:54:01 46° ENE 20:54:01 46° ENE
SL-16 R/B 4.1 20:56:27 10° SE 21:01:50 30° E 21:04:30 22° NE
SL-12 R/B(2) 4.0 21:00:26 10° SSW 21:09:24 74° ENE 21:16:00 10° NNE
USA 59 Rocket 4.3 21:16:14 10° SSW 21:19:05 11° S 21:21:51 10° SSE
Meteor 2-3 Rocket 4.5 21:22:07 45° ENE 21:23:03 50° E 21:28:34 10° SSE
Cosmos 521 Rocket 4.5 21:26:44 77° ESE 21:26:44 77° ESE 21:32:42 10° SSE
H-2A R/B 4.2 21:31:04 16° SSW 21:31:04 16° SSW 21:32:00 10° SSW
Cosmos 2219 3.6 21:24:30 10° SSW 21:30:07 61° ESE 21:35:40 10° NNE
BREEZE-M DEB (TANK) 3.6 21:39:11 60° SSW 21:39:11 60° SSW 21:52:14 10° SE
ATLAS 2AS CENTAUR R/B 2.5 21:39:15 75° NW 21:39:55 87° WSW 21:46:58 10° SSE
Cosmos 2369 4.2 21:48:02 47° SSW 21:48:02 47° SSW 21:52:32 10° SSE
SL-16 R/B 3.0 21:49:38 21° N 21:53:10 48° ENE 21:58:37 10° SSE
Cosmos 2278 4.0 21:52:28 34° N 21:54:52 63° ENE 22:00:32 10° SSE
UNK 4.3 21:50:38 10° SSE 21:55:14 56° E 21:57:12 32° NNE
Cosmos 2333 Rocket 4.5 21:53:27 10° NNE 21:57:42 22° E 22:01:59 10° SE
Cosmos 1238 Rocket 3.1 21:56:13 10° S 22:00:32 87° E 22:05:31 10° N
Cosmos 1727 Rocket 3.9 21:54:48 10° SSW 22:01:08 67° W 22:07:22 10° N
Cosmos 1933 4.3 22:01:53 10° S 22:04:22 37° S 22:04:22 37° S
Cosmos 1934 Rocket 4.1 21:59:51 10° N 22:06:12 79° E 22:12:33 10° S
Cosmos 2263 Rocket 2.0 22:02:54 10° SSW 22:08:31 78° WNW 22:14:04 10° NNE
Cosmos 1758 Rocket 3.6 22:09:22 62° SW 22:09:22 62° SW 22:13:11 10° S
Cosmos 1980 Rocket 3.5 22:10:25 24° SW 22:10:25 24° SW 22:14:01 10° S
NOSS 3-1 (C) 3.4 22:06:16 10° SSW 22:12:19 67° SE 22:17:15 10° NE
CBERS-1 3.9 22:08:27 10° N 22:13:33 67° WNW 22:18:43 10° SSW
USA 305 2.5 22:14:56 81° E 22:14:56 81° E 22:18:48 10° SE
Cosmos 2123 Rocket 4.1 22:12:02 10° S 22:18:24 79° E 22:24:44 10° N
Cosmos 1340 Rocket 3.6 22:15:27 10° S 22:19:21 52° E 22:23:13 10° NNE
Genesis I 3.1 22:22:44 57° SSW 22:22:44 57° SSW 22:25:45 10° SSE
Cosmos 332 Rocket 4.1 22:18:42 10° SSW 22:23:34 68° ESE 22:28:21 10° NNE
Cosmos 1777 Rocket 4.4 22:19:01 10° SSW 22:24:17 66° ESE 22:29:27 10° NNE
USA 307 3.8 22:25:19 25° NNE 22:26:30 33° NE 22:29:50 10° ESE
Meteor 2-2 Rocket 4.3 22:24:40 10° SSW 22:30:22 59° W 22:36:07 10° N
Cosmos 540 Rocket 4.2 22:28:12 10° N 22:33:14 55° ENE 22:38:20 10° SSE
OAO 2 Rocket 3.4 22:32:43 34° W 22:35:02 77° N 22:40:22 10° ENE
GP-B 3.0 22:30:40 10° S 22:35:10 82° W 22:39:35 10° N
USA 267 3.7 22:31:38 10° SSE 22:37:49 44° SW 22:41:23 24° W
SL-08 RB Rocket 3.7 22:35:13 10° N 22:39:35 54° W 22:44:04 10° SSW
DMSP B5D2-2 4.0 22:36:29 10° S 22:41:46 81° WSW 22:46:58 10° NNW
SL-16 R/B 3.0 22:39:43 10° S 22:45:22 37° WSW 22:49:36 17° NW
OAO 3 Copernicus 4.4 22:43:06 28° W 22:45:44 64° NNW 22:50:46 10° ENE
Cosmos 1825 Rocket 3.4 22:42:47 10° NNW 22:47:06 72° W 22:51:29 10° S
USA 281 3.3 22:40:58 10° SSE 22:47:26 59° WSW 22:53:52 10° NW
BREEZE-M DEB (TANK) 4.0 22:48:20 15° SSW 22:48:26 15° SSW 22:50:01 10° SSE
NOAA 12 4.1 22:43:18 10° N 22:48:32 62° W 22:53:51 10° SSW
Cosmos-2242 4.2 22:45:43 10° SW 22:48:07 22° WSW 22:48:07 22° WSW
Cosmos 468 Rocket 4.3 22:45:34 10° N 22:50:50 70° ENE 22:56:09 10° SSE
Cosmos 1602 3.8 22:49:41 16° NNW 22:52:17 44° W 22:55:49 10° S
Iridium 921 4.3 22:50:37 10° NNW 22:53:51 55° W 22:57:08 10° S
ARGOS 3.9 22:50:14 10° NNW 22:54:56 30° W 22:59:42 10° SW
Cosmos 1503 Rocket 4.1 22:51:21 10° SSW 22:56:25 52° WNW 23:01:24 10° N
Cosmos 2360 Rocket 2.3 22:52:19 10° NNW 22:57:57 84° ENE 23:03:41 10° SSE
Cosmos 1354 Rocket 3.9 22:53:56 10° SSW 22:59:12 70° WNW 23:04:23 10° N
Cosmos 1763 Rocket 3.6 22:54:21 10° NNW 22:59:35 59° WSW 23:04:53 10° S
Cosmos 1605 Rocket 3.9 22:54:48 10° NNW 23:00:50 64° W 23:06:58 10° S
IRS-1C 4.2 22:56:38 10° N 23:01:52 56° W 23:07:10 10° SSW
ARIANE 5 R/B 2.5 22:57:33 10° N 23:02:26 56° WNW 23:07:25 10° SSW
Meteor 1-26 Rocket 4.5 22:57:28 10° SSW 23:02:47 45° W 23:08:12 10° NNW
CZ-2D R/B 3.2 22:59:34 10° NNE 23:03:05 75° ESE 23:06:42 10° S
USA 234 4.2 23:01:54 10° ENE 23:08:07 47° SE 23:14:23 10° SSW
BREEZE-M DEB 3.8 23:08:37 15° NW 23:09:15 16° NW 23:11:33 10° N
Cosmos 2322 Rocket 2.3 23:06:22 10° NW 23:11:52 57° WSW 23:17:26 10° SSE
IRS-P3 4.2 23:08:01 10° N 23:13:16 58° WNW 23:18:35 10° SSW
Cosmos 2151 3.2 23:09:20 10° NNW 23:13:25 49° W 23:17:36 10° S
USA 59 Rocket 3.8 23:06:29 10° SSW 23:13:40 22° SSE 23:19:44 10° E
Cosmos 2219 Rocket 2.9 23:08:33 10° N 23:14:00 57° ENE 23:19:31 10° SSE
CZ-2D R/B 3.2 23:11:08 10° N 23:15:06 76° WNW 23:19:05 10° SSW
ISS -2.9 23:12:22 10° NNW 23:15:40 50° NE 23:19:01 10° ESE
SJ-12 4.0 23:15:15 10° N 23:19:04 48° W 23:22:58 10° SSW
Cosmos 1447 Rocket 4.5 23:21:07 10° S 23:27:25 74° W 23:33:35 10° N
H-2A R/B 4.0 23:27:16 10° WNW 23:28:37 12° W 23:29:58 10° WSW
Cosmos 1844 Rocket 2.7 23:26:07 10° SSW 23:31:45 81° WNW 23:37:19 10° NNE
ATLAS 2AS CENTAUR R/B 4.2 23:27:17 10° W 23:31:51 18° SW 23:36:35 10° S
NOSS 3-1 (A) 3.1 23:26:13 10° SW 23:32:05 63° WNW 23:36:55 10° NNE
